South St. Paul, MN

8:28 AM CDT on May 30, 2017 (GMT -0500)
South Saint Paul Municipal-Fleming

Weather History for KSGS - October, 2012

Change the Weather History Date:

Tuesday, October 9, 2012

  Actual Average (KSTP) Record (KSTP)
Temperature  
Mean Temperature 46 °F -  
Max Temperature 51 °F 61 °F 84 °F (2011)
Min Temperature 39 °F 40 °F 25 °F (2000)
Degree Days  
Heating Degree Days 20    
Moisture  
Dew Point 33 °F    
Average Humidity 57    
Maximum Humidity 84    
Minimum Humidity 41    
Precipitation  
Precipitation 0.04 in - - ()
Sea Level Pressure  
Sea Level Pressure 29.81 in    
Wind  
Wind Speed 8 mph (West)    
Max Wind Speed 20 mph    
Max Gust Speed 33 mph    
Visibility 10 miles    
Events Rain    
Averages and records for this station are not official NWS values.
T = Trace of Precipitation, MM = Missing Value Source: NWS Daily Summary

Daily Weather History Graph

Daily Weather History Graph

Search for Another Location

Airport or City:

Trip Planner

Search our weather history database for the weather conditions in past years. The results will help you decide how hot, cold, wet, or windy it might be!

Date:

Astronomy

Oct. 09, 2012 Rise Set
Actual Time 7:20 AM CDT 6:37 PM CDT
Civil Twilight 6:51 AM CDT 7:06 PM CDT
Nautical Twilight 6:17 AM CDT 7:40 PM CDT
Astronomical Twilight 5:43 AM CDT 8:14 PM CDT
Moon 12:42 AM CDT (10/9) 3:18 PM CDT (10/9)
Length of Visible Light 12h 14m
Length of Day
11h 16m
Last Quarter, 36% of the Moon is Illuminated
Oct 9
Last Quarter
Oct 15
New
Oct 21
First Quarter
Oct 29
Full
Nov 6
Last Quarter

Hourly Weather History & Observations

Time (CDT) Temp. Windchill Dew Point Humidity Pressure Visibility Wind Dir Wind Speed Gust Speed Precip Events Conditions
12:12 AM 51.8 °F - 36.5 °F 56% 29.74 in 10.0 mi Calm Calm - N/A   Clear
12:32 AM 50.9 °F - 36.5 °F 58% 29.74 in 10.0 mi SW 4.6 mph - N/A   Scattered Clouds
12:52 AM 50.9 °F - 36.7 °F 58% 29.74 in 10.0 mi SW 3.5 mph - N/A   Overcast
1:12 AM 50.9 °F - 36.7 °F 58% 29.74 in 10.0 mi SW 4.6 mph - N/A   Overcast
1:52 AM 50.0 °F - 36.7 °F 60% 29.74 in 10.0 mi SW 3.5 mph - N/A   Scattered Clouds
2:12 AM 50.0 °F - 37.0 °F 61% 29.74 in 10.0 mi SW 3.5 mph - N/A   Mostly Cloudy
3:12 AM 51.1 °F - 37.6 °F 60% 29.73 in 10.0 mi SW 3.5 mph - N/A   Overcast
3:32 AM 51.1 °F - 37.4 °F 60% 29.72 in 10.0 mi WSW 3.5 mph - N/A   Overcast
3:52 AM 51.1 °F - 37.6 °F 60% 29.72 in 10.0 mi SW 3.5 mph - N/A   Overcast
4:12 AM 51.4 °F - 37.8 °F 60% 29.73 in 10.0 mi Calm Calm - N/A   Overcast
4:32 AM 51.3 °F - 38.7 °F 62% 29.73 in 10.0 mi SW 5.8 mph - N/A   Overcast
4:52 AM 51.1 °F - 39.6 °F 65% 29.73 in 10.0 mi SW 5.8 mph - N/A   Overcast
5:12 AM 51.4 °F - 39.6 °F 64% 29.73 in 10.0 mi SW 5.8 mph - N/A   Mostly Cloudy
5:32 AM 51.3 °F - 39.6 °F 64% 29.72 in 10.0 mi SW 5.8 mph - N/A   Mostly Cloudy
5:52 AM 51.1 °F - 39.7 °F 65% 29.73 in 10.0 mi WSW 5.8 mph - N/A   Scattered Clouds
6:12 AM 50.9 °F - 39.6 °F 65% 29.73 in 10.0 mi WSW 5.8 mph - N/A   Mostly Cloudy
6:32 AM 50.9 °F - 39.4 °F 65% 29.73 in 10.0 mi WSW 4.6 mph - N/A   Overcast
6:52 AM 50.9 °F - 39.2 °F 64% 29.73 in 10.0 mi WSW 5.8 mph - N/A   Overcast
7:12 AM 50.9 °F - 38.5 °F 62% 29.74 in 10.0 mi West 11.5 mph - N/A   Overcast
7:32 AM 49.6 °F - 38.8 °F 66% 29.75 in 10.0 mi West 8.1 mph 18.4 mph N/A   Overcast
7:52 AM 49.1 °F - 36.7 °F 62% 29.77 in 10.0 mi NW 11.5 mph - N/A   Mostly Cloudy
8:12 AM 48.4 °F - 34.9 °F 60% 29.77 in 10.0 mi WNW 17.3 mph 24.2 mph N/A   Scattered Clouds
8:32 AM 47.5 °F - 36.0 °F 64% 29.78 in 10.0 mi WNW 16.1 mph 21.9 mph N/A   Scattered Clouds
8:52 AM 44.6 °F 38.8 °F 38.3 °F 79% 29.79 in 4.0 mi WNW 11.5 mph - N/A   Drizzle
9:12 AM 43.9 °F 39.9 °F 38.8 °F 82% 29.79 in 5.0 mi WNW 6.9 mph - 0.02 in Rain Light Rain
9:32 AM 43.9 °F 40.5 °F 39.4 °F 84% 29.80 in 10.0 mi West 5.8 mph - 0.03 in Rain Light Rain
9:52 AM 44.1 °F 40.8 °F 38.8 °F 82% 29.79 in 10.0 mi WSW 5.8 mph - 0.04 in Rain Light Rain
10:12 AM 44.6 °F 40.7 °F 38.1 °F 78% 29.79 in 10.0 mi WSW 6.9 mph - N/A Rain Light Rain
10:32 AM 44.8 °F 40.4 °F 37.2 °F 75% 29.78 in 10.0 mi WSW 8.1 mph 18.4 mph N/A   Scattered Clouds
10:52 AM 45.3 °F 42.3 °F 37.8 °F 75% 29.79 in 10.0 mi WSW 5.8 mph - N/A   Mostly Cloudy
11:12 AM 46.0 °F 41.4 °F 38.8 °F 76% 29.79 in 10.0 mi WSW 9.2 mph - N/A   Mostly Cloudy
11:32 AM 46.6 °F - 37.9 °F 72% 29.78 in 10.0 mi WSW 15.0 mph - N/A   Scattered Clouds
11:52 AM 47.5 °F - 37.6 °F 69% 29.78 in 10.0 mi West 12.7 mph 19.6 mph N/A   Clear
12:12 PM 48.7 °F - 36.1 °F 62% 29.78 in 10.0 mi West 11.5 mph 16.1 mph N/A   Scattered Clouds
12:32 PM 50.2 °F - 32.4 °F 50% 29.78 in 10.0 mi WNW 12.7 mph 21.9 mph N/A   Mostly Cloudy
12:52 PM 49.5 °F - 28.8 °F 45% 29.78 in 10.0 mi West 15.0 mph 24.2 mph N/A   Scattered Clouds
1:12 PM 50.5 °F - 28.4 °F 42% 29.77 in 10.0 mi West 16.1 mph 23.0 mph N/A   Mostly Cloudy
1:32 PM 50.0 °F - 27.7 °F 42% 29.77 in 10.0 mi West 13.8 mph 24.2 mph N/A   Mostly Cloudy
1:52 PM 50.0 °F - 27.9 °F 42% 29.78 in 10.0 mi WNW 19.6 mph 24.2 mph N/A   Overcast
2:12 PM 49.1 °F - 27.1 °F 43% 29.78 in 10.0 mi WNW 18.4 mph 27.6 mph N/A   Overcast
2:32 PM 49.1 °F - 26.2 °F 41% 29.78 in 10.0 mi West 12.7 mph 23.0 mph N/A   Overcast
2:52 PM 48.7 °F - 26.6 °F 42% 29.79 in 10.0 mi West 17.3 mph 33.4 mph N/A   Overcast
3:12 PM 49.1 °F - 27.7 °F 44% 29.80 in 10.0 mi WNW 13.8 mph 20.7 mph N/A   Overcast
3:32 PM 48.9 °F - 28.0 °F 44% 29.80 in 10.0 mi WNW 11.5 mph 19.6 mph N/A   Overcast
3:52 PM 48.9 °F - 28.4 °F 45% 29.80 in 10.0 mi WNW 13.8 mph 19.6 mph N/A   Overcast
4:12 PM 48.6 °F - 28.6 °F 46% 29.81 in 10.0 mi WNW 15.0 mph 19.6 mph N/A   Overcast
4:32 PM 48.6 °F - 28.8 °F 46% 29.81 in 10.0 mi West 12.7 mph 16.1 mph N/A   Overcast
4:52 PM 48.2 °F - 29.3 °F 48% 29.82 in 7.0 mi WNW 12.7 mph 20.7 mph N/A   Overcast
5:12 PM 48.6 °F - 30.2 °F 49% 29.83 in 10.0 mi WNW 15.0 mph 24.2 mph N/A   Overcast
5:32 PM 47.5 °F - 30.4 °F 52% 29.84 in 10.0 mi WNW 13.8 mph 20.7 mph N/A   Mostly Cloudy
5:52 PM 46.2 °F 40.5 °F 30.4 °F 54% 29.85 in 10.0 mi NW 12.7 mph 27.6 mph N/A   Scattered Clouds
6:12 PM 45.5 °F 38.1 °F 29.7 °F 54% 29.87 in 10.0 mi NW 18.4 mph 25.3 mph N/A   Scattered Clouds
6:32 PM 45.0 °F 38.5 °F 28.9 °F 53% 29.88 in 10.0 mi WNW 13.8 mph 21.9 mph N/A   Mostly Cloudy
6:52 PM 44.1 °F 38.6 °F 28.9 °F 55% 29.89 in 10.0 mi WNW 10.4 mph 18.4 mph N/A   Scattered Clouds
7:12 PM 44.2 °F 38.8 °F 29.3 °F 56% 29.90 in 10.0 mi WNW 10.4 mph 16.1 mph N/A   Scattered Clouds
7:32 PM 44.8 °F 37.7 °F 26.8 °F 49% 29.91 in 10.0 mi WNW 16.1 mph 25.3 mph N/A   Overcast
7:52 PM 44.6 °F 36.9 °F 24.3 °F 45% 29.91 in 10.0 mi NW 18.4 mph 24.2 mph N/A   Overcast
8:12 PM 44.6 °F 38.4 °F 25.2 °F 46% 29.92 in 10.0 mi WNW 12.7 mph 16.1 mph N/A   Overcast
8:32 PM 44.6 °F 36.9 °F 25.2 °F 46% 29.92 in 10.0 mi NW 18.4 mph 24.2 mph N/A   Overcast
8:52 PM 44.2 °F 36.4 °F 24.6 °F 46% 29.93 in 10.0 mi NW 18.4 mph 25.3 mph N/A   Overcast
9:12 PM 43.9 °F 37.9 °F 25.5 °F 48% 29.93 in 10.0 mi NW 11.5 mph 26.5 mph N/A   Overcast
9:32 PM 43.7 °F 36.0 °F 25.2 °F 48% 29.94 in 10.0 mi NW 17.3 mph 23.0 mph N/A   Overcast
9:52 PM 43.3 °F 36.5 °F 25.5 °F 49% 29.94 in 10.0 mi NW 13.8 mph 19.6 mph N/A   Overcast
10:12 PM 42.1 °F 34.5 °F 24.8 °F 50% 29.95 in 10.0 mi NW 15.0 mph 20.7 mph N/A   Mostly Cloudy
10:32 PM 41.7 °F 34.4 °F 24.8 °F 51% 29.96 in 10.0 mi NNW 13.8 mph 20.7 mph N/A   Mostly Cloudy
10:52 PM 41.0 °F 34.7 °F 25.3 °F 54% 29.96 in 10.0 mi NW 10.4 mph - N/A   Scattered Clouds
11:12 PM 40.6 °F 36.0 °F 25.7 °F 55% 29.97 in 10.0 mi WNW 6.9 mph - N/A   Scattered Clouds
11:32 PM 40.3 °F 34.9 °F 26.1 °F 57% 29.97 in 10.0 mi West 8.1 mph - N/A   Scattered Clouds
11:52 PM 39.7 °F 34.9 °F 26.1 °F 58% 29.97 in 10.0 mi West 6.9 mph - N/A   Clear